User: anonymous   Login
Location: Prague
(50.0830°N, 14.4670°E)
Time: 18:12:24
(UTC+01:00)
Language:

BEESAT 2 - Orbit

View from above orbital plane
View from above orbital plane
View from above satellite
View from above satellite

Ground track
Ground track

The orbit data is extracted from the following two-line orbital elements,

1 39136U 13015G   21336.84170455  .00003724  00000-0  18282-3 0  9991
2 39136  64.8772  23.6149 0013949 247.5905 112.3744 15.19631918476015
Epoch (UTC): 02 December 2021 20:12:03
Eccentricity: 0.0013949
inclination: 64.8772°
perigee height: 497 km
apogee height: 516 km
right ascension of ascending node: 23.6149°
argument of perigee: 247.5905°
revolutions per day: 15.19631918
mean anomaly at epoch: 112.3744°
orbit number at epoch: 47601

The dashed part of the orbit path shows where the satellite is in the earth's shadow,  

DLR